Overview Statistics Trail Chart Weather Telemetry Raw packets
 

This is the latest recevied weather packets stored in our database for station/object KB4MOX. If no packets are shown the sender has not sent any weather packets the latest 10 day(s).

<< 8 9 10 11 12 13 14 >>
Time Temp. Humidity Pressure Rain* Wind** Luminosity Snow
1788563192 33.89° C 52% 1014.1 hPa 0 mm - 27 W/m² -
1788562888 33.89° C 52% 1014.2 hPa 0 mm - 32 W/m² -
1788562585 34.44° C 51% 1014.1 hPa 0 mm - 32 W/m² -
1788562280 34.44° C 50% 1013.9 hPa 0 mm - 32 W/m² -
1788561975 34.44° C 50% 1013.9 hPa 0 mm - 90 W/m² -
1788561669 35° C 49% 1014.2 hPa 0 mm - 102 W/m² -
1788561369 35° C 48% 1013.9 hPa 0 mm - 118 W/m² -
1788561064 35° C 49% 1014.1 hPa 0 mm - 130 W/m² -
1788560760 35° C 48% 1014.1 hPa 0 mm - 145 W/m² -
1788560456 35° C 48% 1014.1 hPa 0 mm - 159 W/m² -
1788560155 35° C 48% 1014 hPa 0 mm - 177 W/m² -
1788559850 35.56° C 47% 1014.1 hPa 0 mm - 195 W/m² -
1788559550 35° C 47% 1014.2 hPa 0 mm - 205 W/m² -
1788559245 35.56° C 47% 1014 hPa 0 mm - 221 W/m² -
1788558940 35.56° C 46% 1014.2 hPa 0 mm - 240 W/m² -
1788558636 35.56° C 47% 1014.1 hPa 0 mm - 254 W/m² -
1788558331 35° C 48% 1014.3 hPa 0 mm - 277 W/m² -
1788558027 35° C 49% 1014.3 hPa 0 mm - 290 W/m² -
1788557724 35.56° C 47% 1014.3 hPa 0 mm - 65 W/m² -
1788557422 35° C 48% 1013.9 hPa 0 mm - 341 W/m² -
1788557121 35.56° C 47% 1014.2 hPa 0 mm - 305 W/m² -
1788556816 35° C 48% 1014.2 hPa 0 mm - 392 W/m² -
1788556516 35.56° C 47% 1014.2 hPa 0 mm - 395 W/m² -
1788556212 35.56° C 46% 1014.1 hPa 0 mm - 396 W/m² -
1788555911 35.56° C 47% 1014.1 hPa 0 mm - 418 W/m² -

* Rain latest hour (hover to see other rain measurements)
** Current wind speed in m/s (hover to see current wind gust speed)